FENGYUN 3G (56232 NORAD) Tracking and Keplerian Element Data

This shows tracking and keplerian element data for the satellite.

Feedback or suggestion? Click here.




ElementValue
Catalog56232
NameFENGYUN 3G
Epoch Orbit2067
Epoch Day239.1168813
Epoch Year2023
RAAN231.8616
Inclination49.9966
Eccentricity0.0004998
Argument of Perigee17.7334
Mean Anonmoly342.3807
Mean Motion15.53481446
Decay Rate0.00032285
L11 56232U 23055A 23239.11688130 .00032285 00000+0 50365-3 0 9991
L22 56232 49.9966 231.8616 0004998 17.7334 342.3807 15.53481446 20678



Live tracking and technical data element details for FENGYUN 3G (NORAD 56232). FENGYUN 3G can be tracked NOW for your location showing map with azimuth and elevation plus other details from your city location.







IsCatalogInMostPopularTable: catalog: 56232, numindb: 17
Update: records affected: 1



GetName: 56232 FENGYUN 3G

Hit Count: updated at: Thu, 28 Sep 2023 04:01:27 GMT